Погода в Подоловке

Россия / Амурская область     49°53′09″N   129°11′17″E
темп.,
°C
ветер,
м/с
пор.,
м/с
влажн.,
%
обл.,
%
осадки,
мм/ч
давл.,
гПа
погр.,
м
25 июля, вс
вс2500:00+21ю3591100 1.4 100383
03:00+19юз2398100 9.9 1004123
06:00+20ю4999100 2.7 1004347
09:00+22юз578758 3.0 1004579
12:00+28ююз57615 0.0 10041486
15:00+28ююв356792 0.1 1003530
18:00+22вюв4790100 1.8 1002129
21:00+21ююв2291100 4.4 100330
26 июля, пн
пн2600:00+20ююз4896100 4.4 1004182
03:00+20ю3697100 5.7 1003166
06:00+19вюв2399100 3.1 1002115
09:00+20св2499100 6.2 1002200
12:00+21всв3595100 0.8 1002377
15:00+21всв2393100 0.8 1002265
18:00+20зсз0195100 0.1 100216
21:00+20з2296100 0.1 100328
27 июля, вт
вт2700:00+19зюз1296100 0.0 100317
03:00+19з1195100 0.0 100311
06:00+19ю1296100 0.0 100444
09:00+23ю2285100 0.0 1004511
12:00+26ю1173100 0.1 1004939
15:00+27ююв2270100 0.4 10021092
18:00+23ююв3493100 3.6 100296
21:00+21юв2297100 6.1 100343
28 июля, ср
ср2800:00+21ю2298100 1.1 100229
03:00+20ю2399100 3.2 100283
06:00+20ююз239893 0.0 1003120
09:00+23ююз338890 0.0 1002542
12:00+26юз4476100 0.1 1001963
15:00+26юз3474100 0.2 1000879
18:00+26з1381100 0.4 999335
21:00+23юз1184100 0.5 100011
29 июля, чт
чт2900:00+22ю1186100 0.1 99811
03:00+21з3392100 0.2 99868
06:00+21з2493100 0.0 998103
09:00+24зюз3483100 0.7 998270
12:00+27юз456596 0.9 998984
15:00+29ююз3556100 1.0 9961630
18:00+26зюз3677100 0.3 996172
21:00+22юз4107945 0.4 997186